Hewanorra International Airport


Codes: TLPL/UVF
Name: Hewanorra International Airport
City: Vieux Fort
Country: Saint Lucia
Elevation: 14 ft.
Website:
Wikipedia:

Photos at Hewanorra International Airport


   Photos courtesy of SpottingLog. You can add your own sightings and photos by signing up for a free trial today.



G-VGEM, 13-May-2014
© Sharanpal Gill


Weather at Hewanorra International Airport


Time (UTC)DescriptionTempratureWindCloud coverageVisibilityPressureHumidity
15-Apr-2024 18:00Scattered Clouds31°C18 mph, E40%10000m1013hPa64%
15-Apr-2024 21:00Light Rain30°C18 mph, E60%10000m1012hPa67%
16-Apr-2024 00:00Broken Clouds29°C16 mph, E73%10000m1013hPa71%
16-Apr-2024 03:00Light Rain27°C18 mph, E58%10000m1014hPa77%
16-Apr-2024 06:00Light Rain27°C18 mph, E60%10000m1012hPa70%
16-Apr-2024 09:00Overcast Clouds27°C16 mph, E100%10000m1012hPa72%
16-Apr-2024 12:00Overcast Clouds28°C16 mph, E100%10000m1014hPa72%
16-Apr-2024 15:00Broken Clouds28°C16 mph, E72%10000m1014hPa73%
16-Apr-2024 18:00Light Rain28°C16 mph, SE63%10000m1012hPa73%
16-Apr-2024 21:00Overcast Clouds28°C16 mph, SE89%10000m1011hPa75%
17-Apr-2024 00:00Light Rain28°C13 mph, SE80%10000m1012hPa80%
17-Apr-2024 03:00Light Rain28°C13 mph, E88%10000m1013hPa77%
17-Apr-2024 06:00Light Rain27°C13 mph, SE81%10000m1012hPa81%
17-Apr-2024 09:00Light Rain27°C13 mph, E38%10000m1012hPa82%
17-Apr-2024 12:00Light Rain27°C13 mph, E53%10000m1014hPa80%
17-Apr-2024 15:00Light Rain28°C16 mph, SE54%10000m1014hPa77%
17-Apr-2024 18:00Light Rain28°C16 mph, SE54%10000m1011hPa76%
17-Apr-2024 21:00Light Rain28°C13 mph, SE78%10000m1011hPa77%
18-Apr-2024 00:00Light Rain28°C13 mph, E89%10000m1012hPa81%
18-Apr-2024 03:00Light Rain28°C13 mph, E89%10000m1013hPa79%
18-Apr-2024 06:00Overcast Clouds27°C13 mph, E92%10000m1011hPa80%
18-Apr-2024 09:00Overcast Clouds27°C13 mph, E87%10000m1012hPa79%
18-Apr-2024 12:00Light Rain28°C16 mph, E88%10000m1013hPa78%
18-Apr-2024 15:00Light Rain29°C13 mph, SE100%10000m1013hPa74%
18-Apr-2024 18:00Light Rain28°C13 mph, SE100%10000m1011hPa76%
18-Apr-2024 21:00Light Rain28°C11 mph, SE76%10000m1011hPa74%
19-Apr-2024 00:00Light Rain28°C9 mph, E82%10000m1012hPa79%
19-Apr-2024 03:00Light Rain27°C11 mph, E95%10000m1013hPa81%
19-Apr-2024 06:00Light Rain27°C9 mph, E99%10000m1011hPa82%
19-Apr-2024 09:00Light Rain27°C9 mph, E89%10000m1012hPa81%
19-Apr-2024 12:00Light Rain27°C11 mph, E93%10000m1013hPa78%
19-Apr-2024 15:00Light Rain28°C13 mph, E100%10000m1013hPa76%
19-Apr-2024 18:00Light Rain28°C11 mph, E100%10000m1012hPa74%
19-Apr-2024 21:00Light Rain28°C13 mph, E100%10000m1011hPa75%
20-Apr-2024 00:00Light Rain28°C13 mph, E93%10000m1013hPa78%
20-Apr-2024 03:00Scattered Clouds27°C13 mph, E47%10000m1013hPa79%
20-Apr-2024 06:00Light Rain27°C11 mph, E60%10000m1012hPa81%
20-Apr-2024 09:00Light Rain27°C9 mph, E80%10000m1012hPa84%
20-Apr-2024 12:00Light Rain27°C11 mph, E90%10000m1014hPa80%
20-Apr-2024 15:00Light Rain28°C11 mph, SE99%10000m1014hPa77%